Location: Bad Dürkheim
(49.4618°N, 8.1724°E)
Time: 21:03:21
(UTC+00:00)

PSLV R/B - Pass Details

Date: 14 June 2025
Orbit: 588 x 681 km, 97.9° (Epoch: 16 July)

Event Time Altitude Azimuth Distance (km) Brightness Sun altitude
Rises 22:30:41 0° 21° (NNE) 2,875 7.9 -16.1°
Reaches altitude 10° 22:33:00 10° 30° (NNE) 1,980 6.8 -16.2°
Maximum altitude 22:36:58 35° 97° (E) 1,008 4.5 -16.4°
Enters shadow 22:38:34 27° 139° (SE) 1,226 4.6 -16.4°
